Temperature
16 17 17 18 18 17 17 16 16 16 16 18 17 17 18 19 19 19 19 19 19 19 19 18 18 18 17 17 17 17 17 16 16 16 16 16 16 16 15 15 15 15 15 15
16 17 17 17 17 17 17 17 17 17 17 17 18 18 18 19 19 19 19 19 19 19 19 18 18 18 17 17 17 17 17 17 16 16 16 16 16 15 15 15 15 15 15 15
15 16 17 16 17 17 17 17 17 17 17 17 17 17 18 19 19 19 19 19 19 19 19 19 18 18 18 17 17 17 17 16 16 16 16 16 16 15 15 15 15 15 15 15
13 15 16 16 17 17 17 17 17 17 17 17 18 18 19 19 19 19 19 19 19 19 19 19 18 18 18 17 17 17 17 16 16 16 16 16 16 15 15 15 15 15 15 14
12 14 15 16 17 17 17 17 17 16 17 17 18 18 18 19 19 19 19 19 19 19 19 19 18 18 18 17 17 17 17 16 16 16 16 16 16 15 15 15 15 15 15 14
12 14 15 16 17 18 17 17 17 17 16 17 17 15 16 18 19 19 19 19 19 19 19 18 18 18 18 17 17 17 17 16 16 16 16 16 16 15 15 15 15 15 15 14
12 13 14 15 16 17 17 16 17 17 17 17 16 17 18 18 18 19 19 19 19 18 18 18 18 18 17 17 17 17 16 16 16 16 16 16 15 15 15 15 15 15 14 14
11 13 14 15 15 16 16 18 18 18 18 17 18 18 18 18 18 18 18 18 18 18 18 18 17 17 17 17 17 17 16 16 16 16 15 15 15 15 15 15 15 14 14 14
13 14 15 15 16 17 18 18 18 18 18 18 17 17 17 18 18 18 18 18 18 18 18 17 17 17 17 17 17 16 16 16 16 16 15 15 15 15 15 14 14 14 14 14
11 12 14 15 16 17 17 18 18 18 18 17 17 17 17 17 17 17 17 17 17 17 17 17 17 17 17 17 16 16 16 16 16 15 15 15 15 14 14 14 14 14 14 14
11 12 13 15 16 16 17 17 17 17 17 17 17 17 16 16 16 17 17 17 17 17 17 17 17 16 16 16 16 16 16 15 15 15 15 15 14 14 14 14 14 14 14 13
12 13 13 14 15 16 16 16 16 16 16 16 16 16 16 16 16 16 16 16 16 16 16 16 16 16 16 16 16 15 15 15 15 15 14 14 14 14 14 14 13 13 13 13
14 15 15 15 15 15 15 15 16 16 16 16 16 16 16 16 16 16 16 16 16 16 16 16 16 16 16 15 15 15 15 15 14 14 14 14 14 14 14 14 13 13 13 13
14 14 14 14 14 15 15 15 15 15 15 15 15 15 15 15 15 15 15 15 15 15 15 15 15 15 15 15 15 15 15 14 14 14 14 14 14 13 13 13 13 13 13 12
13 14 14 14 14 14 14 14 14 14 14 14 15 15 15 15 14 14 14 15 15 15 15 15 15 15 15 14 14 14 14 14 14 14 13 13 13 13 13 12 12 12 12 12
13 13 13 13 13 14 14 14 14 13 14 14 14 14 14 14 14 14 14 14 14 14 14 14 14 14 14 14 14 14 14 14 13 13 13 13 13 12 12 12 12 12 12 11
12 12 12 13 13 13 13 13 13 13 13 13 13 13 13 13 13 13 13 13 13 13 13 14 14 13 13 13 13 13 13 13 13 13 13 12 12 12 12 12 11 11 11 11
12 12 12 13 13 13 12 12 12 13 13 13 12 13 13 13 12 13 13 13 12 13 13 13 13 13 13 13 13 13 13 12 12 12 12 12 11 11 11 11 11 11 10 10
12 12 12 12 12 12 12 12 12 12 12 12 12 12 12 12 12 12 12 12 12 12 12 12 12 12 12 12 12 12 12 12 12 11 11 11 11 11 11 11 10 10 10 10
11 11 11 11 11 11 11 11 11 11 11 11 11 11 11 11 11 11 11 11 11 11 12 12 11 12 12 12 12 11 11 11 11 11 11 11 11 11 10 10 10 10 9 9
10 10 10 10 10 10 10 11 11 11 11 11 11 10 11 11 11 11 11 11 11 11 11 11 11 11 11 11 11 11 11 11 11 10 10 10 10 10 10 10 10 9 9 9
10 10 10 10 10 10 10 10 10 10 10 10 10 10 10 10 10 10 10 10 10 10 10 10 10 10 10 10 10 10 10 10 10 10 10 10 10 9 9 9 9 9 9 8
9 9 9 9 9 9 9 9 9 9 9 9 9 9 9 9 9 9 9 9 9 9 10 10 10 10 10 10 10 10 10 9 9 9 9 9 9 9 9 9 9 9 8 8
8 8 8 8 9 9 9 9 9 9 9 9 9 8 8 8 8 8 9 9 9 9 9 9 9 9 9 9 9 9 9 9 9 9 9 9 9 9 9 9 8 8 8 8
8 8 8 8 8 8 8 8 8 8 8 8 8 8 8 8 8 8 8 8 8 8 9 9 9 9 9 9 9 9 9 8 8 8 8 8 8 8 8 8 8 8 8 7
7 7 7 7 8 7 7 7 7 7 7 7 8 8 7 7 7 7 8 8 8 8 8 8 8 8 8 8 8 8 8 8 8 8 8 8 8 8 8 8 8 7 7 7
7 7 7 7 7 7 7 7 7 7 7 7 7 7 7 7 7 7 7 7 7 7 8 8 8 8 8 8 8 7 7 7 8 8 8 7 8 7 7 7 7 7 7 6
Wind_Speed
5 5 3 5 5 6 6 7 7 8 8 9 7 6 4 3 2 2 3 4 6 6 6 6 6 6 6 6 5 6 5 5 5 5 4 4 4 4 4 4 4 4 4 3
3 3 4 5 6 7 7 6 6 5 8 8 5 3 3 3 4 4 4 5 6 6 6 6 7 7 7 6 6 6 6 6 4 4 4 5 4 4 4 4 4 4 4 4
3 4 3 6 7 9 6 6 7 8 9 4 3 4 5 5 5 6 6 5 6 7 7 7 8 8 8 8 6 7 6 5 5 5 5 5 5 4 5 5 4 4 4 4
1 1 6 8 4 6 6 6 6 6 5 5 6 4 3 3 5 6 6 6 6 6 6 6 6 6 6 7 7 7 6 5 5 5 5 4 4 5 5 4 4 4 4 5
3 4 6 7 4 4 5 5 5 6 5 2 1 2 2 2 3 5 5 5 5 5 5 5 5 6 7 6 6 6 6 6 6 6 5 5 5 5 4 4 4 4 4 5
4 4 6 7 4 2 3 4 4 4 4 2 4 2 4 4 2 2 2 3 4 4 4 5 5 6 8 7 6 6 7 6 6 6 6 6 6 4 3 4 4 4 4 4
5 5 7 7 4 3 4 6 3 4 4 5 5 6 4 2 1 2 3 3 4 5 4 4 5 7 7 7 7 7 6 5 5 5 6 5 4 3 3 4 3 3 3 3
6 5 8 3 3 4 6 3 2 3 4 5 4 2 1 2 2 2 3 3 3 4 3 3 5 7 6 6 6 5 5 5 5 5 5 4 4 3 3 4 4 3 3 2
8 7 4 3 5 4 2 2 2 2 2 4 3 1 1 2 2 2 3 3 3 4 4 3 4 6 6 5 4 5 5 5 4 4 4 4 5 5 3 4 4 3 3 3
3 6 5 5 4 4 3 3 3 2 2 3 2 2 2 2 2 2 2 3 3 4 4 2 3 4 5 4 4 6 6 5 5 5 4 4 4 4 4 4 4 4 4 4
5 6 5 5 4 4 4 3 1 1 0 2 3 2 2 2 2 2 2 2 3 4 4 3 3 3 3 4 5 5 5 5 4 4 5 4 4 4 5 5 6 6 6 5
7 7 5 6 6 4 2 3 2 0 1 1 2 3 2 2 1 2 2 2 3 3 3 3 2 2 3 4 5 6 5 5 4 4 4 4 4 1 2 3 5 7 7 6
7 6 5 6 6 4 4 4 2 2 2 2 1 2 3 1 1 1 2 2 2 3 3 2 2 2 2 3 5 6 5 5 4 5 5 4 4 4 2 1 1 4 5 6
5 4 5 7 7 5 3 2 1 1 1 1 1 2 2 1 1 2 2 2 2 1 1 1 1 1 2 3 4 5 5 5 5 5 5 5 5 4 4 3 2 2 2 4
7 7 7 6 5 4 2 2 1 0 1 1 1 2 2 2 2 2 1 1 2 2 1 0 0 2 2 2 4 4 4 4 4 4 4 4 4 4 3 4 3 2 1 1
6 5 5 5 5 5 3 3 4 3 2 1 1 2 2 2 2 2 1 2 3 2 1 1 2 3 2 2 3 3 3 3 3 3 3 3 4 4 4 4 3 3 3 3
5 5 5 5 6 5 5 4 4 4 3 2 3 3 3 2 2 1 1 1 2 2 2 2 2 2 2 2 2 3 3 3 3 3 3 3 4 4 4 4 4 4 3 3
7 7 7 6 6 5 4 3 3 3 3 2 2 3 3 3 3 2 1 1 1 0 0 1 1 1 1 1 1 2 3 3 3 3 3 3 3 3 4 4 4 4 2 2
4 4 4 5 5 5 4 4 3 3 2 2 3 3 3 3 3 3 2 2 1 1 2 2 1 0 1 1 1 2 3 3 3 3 3 3 2 2 3 3 3 3 3 2
2 2 2 2 2 2 3 3 2 2 2 3 4 3 3 2 2 3 3 2 2 3 2 1 1 1 1 2 1 2 3 3 3 3 3 3 3 3 3 3 3 3 3 3
1 1 1 1 1 1 2 3 2 2 2 3 4 4 4 3 3 3 3 2 2 1 1 1 1 1 1 1 1 2 2 3 3 3 3 3 3 3 3 3 3 3 3 3
1 1 1 1 1 1 1 1 2 3 2 2 3 3 3 2 3 3 3 3 3 1 1 1 2 2 1 1 1 2 3 3 3 3 3 3 3 3 3 3 3 3 3 3
1 0 1 1 2 2 1 1 2 3 3 3 3 4 4 4 4 3 3 2 2 2 1 2 2 2 1 1 1 2 3 3 3 3 3 4 4 4 4 4 3 3 3 3
1 0 0 0 1 2 1 1 1 2 2 3 3 4 4 3 3 3 3 3 2 2 2 2 2 2 1 1 2 2 3 3 3 3 3 3 3 3 3 3 3 3 3 3
1 0 0 1 2 2 2 1 1 1 1 1 2 3 3 3 3 3 2 3 3 2 2 2 2 2 2 2 2 3 3 3 3 3 3 3 3 3 3 3 3 3 3 3
1 1 1 2 2 1 2 2 2 2 2 1 1 2 2 2 2 2 2 2 3 2 2 2 2 2 2 2 3 3 3 3 3 3 3 3 3 3 3 3 3 3 3 3
1 0 0 1 1 1 1 2 3 3 3 3 3 3 2 2 2 2 2 2 2 2 2 2 2 3 3 2 2 2 2 2 2 3 3 3 3 3 3 3 3 3 3 3
Wind_Direction
249 258 232 235 228 198 195 194 196 228 234 254 255 250 248 229 204 183 188 187 189 192 195 191 189 189 190 189 181 174 170 179 192 188 177 168 168 174 174 175 180 177 173 173
292 277 250 258 243 222 223 212 216 230 252 256 251 231 232 213 194 197 207 205 195 189 189 195 196 195 190 188 182 171 175 186 179 170 166 170 174 173 170 175 175 171 180 179
267 306 339 268 231 212 212 205 190 218 239 251 243 226 223 215 200 203 209 209 198 193 195 200 200 193 192 187 174 170 176 179 171 171 176 182 179 172 181 182 174 176 185 183
191 36 242 247 245 201 206 228 221 229 242 223 227 227 218 203 199 208 209 204 203 198 197 195 189 182 175 166 167 171 175 179 178 174 177 175 171 185 189 179 177 185 191 194
159 214 269 286 260 186 187 248 235 228 248 244 189 72 329 256 210 210 210 201 197 193 187 176 172 170 156 156 163 168 179 186 184 178 174 172 183 194 187 174 183 188 191 193
162 190 235 248 268 214 135 263 261 210 211 169 113 137 260 267 231 199 174 175 175 166 153 157 167 159 154 162 167 185 193 191 183 177 176 184 194 191 181 177 188 185 195 200
189 214 254 263 285 109 166 242 259 192 192 173 182 209 232 224 198 171 142 139 144 140 149 168 162 156 163 171 192 199 186 172 167 172 179 182 179 172 170 171 169 183 203 219
174 202 245 263 133 176 228 267 231 199 193 186 202 207 179 154 149 129 118 113 125 134 146 153 155 159 170 194 202 175 164 165 171 172 175 168 161 164 163 163 169 188 201 236
194 214 243 224 220 253 243 249 240 214 222 174 177 204 175 148 129 136 137 138 138 137 139 141 157 167 182 204 173 161 159 169 174 168 168 165 166 168 162 167 177 190 192 214
242 266 276 286 288 295 281 267 268 234 187 163 170 178 161 148 140 146 152 149 144 137 135 156 179 183 191 182 167 166 172 178 174 168 170 167 170 175 177 186 192 195 199 210
249 269 290 285 270 280 309 319 343 12 305 177 151 155 163 168 178 177 166 162 156 157 168 185 186 192 187 168 162 171 180 182 180 178 176 177 180 192 198 207 203 201 206 202
229 229 216 258 279 289 291 284 262 169 333 298 173 173 164 178 204 190 174 165 160 164 175 190 179 187 190 178 170 168 178 186 186 182 179 177 176 186 237 224 222 216 212 204
236 241 235 266 278 267 256 262 260 232 220 233 251 178 165 163 177 169 162 159 173 185 186 183 181 193 202 187 178 176 183 189 187 183 180 181 181 183 209 311 242 223 216 211
240 237 253 259 261 256 247 255 279 318 289 216 194 161 142 127 128 142 164 191 182 163 168 170 169 218 229 192 182 182 179 186 187 189 186 186 190 192 191 193 221 270 243 220
241 235 235 244 245 247 228 183 145 329 315 314 166 151 149 149 167 177 173 160 145 123 116 155 208 270 256 191 179 179 176 181 184 184 186 187 185 184 187 194 201 217 252 273
239 242 234 230 232 229 208 197 201 225 227 229 198 189 174 168 164 150 150 151 150 160 202 207 240 262 247 195 179 177 181 179 167 171 176 179 181 185 192 196 201 205 218 221
217 235 233 232 234 232 222 216 213 216 212 209 207 188 153 138 128 123 117 121 167 188 206 209 246 260 237 200 186 182 175 180 167 165 179 188 192 195 197 198 204 214 227 219
225 231 230 222 218 220 229 224 217 209 211 219 187 158 154 161 171 185 190 155 78 52 280 247 264 256 230 212 187 175 174 176 179 183 186 190 199 201 196 200 207 214 225 219
232 234 235 227 213 200 203 212 217 209 206 184 161 171 184 187 181 179 165 138 135 281 300 297 313 256 212 209 166 174 175 174 176 181 185 189 188 194 199 203 209 211 207 211
249 246 223 206 189 184 189 199 194 190 202 176 164 167 177 190 176 167 158 176 220 239 245 228 205 226 222 209 170 174 174 177 181 183 180 182 194 204 210 212 211 211 211 213
242 209 183 182 194 206 202 192 175 175 187 169 168 183 191 191 178 174 170 227 272 265 225 196 223 237 229 217 183 181 181 184 188 188 189 193 199 208 214 216 215 213 213 219
281 204 176 176 167 213 242 194 172 164 166 168 168 178 181 188 193 198 203 219 232 251 226 219 227 244 267 242 201 191 192 192 194 196 196 197 201 209 216 219 222 224 219 220
298 202 168 188 185 198 218 199 185 176 182 190 193 193 195 205 204 200 232 245 221 242 239 230 250 268 270 216 211 207 200 197 199 204 206 207 210 213 216 219 223 224 219 219
334 334 284 238 152 142 175 261 224 199 193 209 211 205 197 200 221 227 226 230 239 251 240 253 263 268 256 229 221 216 209 206 207 208 209 209 214 218 218 215 215 218 218 216
305 295 170 160 167 187 205 207 187 212 213 218 220 213 210 203 210 223 215 213 220 237 254 254 262 270 246 235 228 221 214 212 207 198 203 209 216 221 220 213 210 209 213 219
300 262 238 234 220 219 210 193 199 217 211 215 240 222 212 206 201 204 202 206 204 238 254 246 242 243 236 235 234 225 218 217 212 209 209 210 215 217 217 214 210 214 217 217
329 339 32 2 339 295 225 194 196 206 206 203 216 224 211 203 197 200 201 209 216 229 242 247 241 235 236 235 229 219 214 209 206 205 206 211 215 219 219 214 216 212 208 200
Height
1519 1516 1516 1516 1515 1517 1520 1523 1529 1524 1520 1511 1508 1506 1505 1506 1506 1507 1508 1509 1511 1513 1515 1518 1520 1522 1525 1528 1530 1532 1534 1536 1537 1539 1541 1542 1544 1545 1547 1548 1549 1550 1551 1552
1520 1515 1514 1514 1512 1513 1514 1515 1516 1515 1514 1504 1504 1504 1504 1504 1505 1506 1507 1508 1509 1511 1513 1515 1518 1520 1523 1525 1528 1530 1532 1534 1535 1537 1539 1540 1542 1544 1545 1546 1547 1549 1550 1551
1526 1518 1515 1519 1509 1508 1508 1507 1509 1512 1506 1502 1502 1501 1501 1502 1503 1503 1505 1506 1508 1509 1511 1513 1515 1518 1520 1522 1525 1527 1530 1532 1533 1535 1537 1538 1540 1542 1543 1545 1546 1547 1548 1549
1527 1524 1528 1511 1499 1499 1501 1501 1501 1500 1499 1499 1498 1498 1499 1500 1501 1501 1503 1504 1506 1508 1509 1511 1513 1515 1518 1520 1523 1525 1527 1529 1531 1533 1535 1536 1538 1539 1541 1542 1544 1545 1546 1547
1529 1528 1519 1507 1498 1497 1500 1501 1497 1497 1496 1496 1496 1497 1498 1498 1499 1500 1501 1503 1504 1506 1508 1509 1511 1513 1516 1518 1520 1522 1524 1527 1529 1531 1532 1534 1535 1537 1538 1540 1541 1543 1544 1545
1526 1525 1522 1505 1494 1492 1496 1501 1493 1493 1494 1495 1496 1501 1499 1497 1497 1498 1500 1501 1503 1505 1506 1508 1509 1511 1514 1516 1518 1520 1522 1524 1527 1528 1530 1532 1533 1535 1536 1537 1539 1540 1541 1542
1522 1521 1512 1498 1493 1493 1505 1500 1490 1490 1491 1493 1494 1495 1495 1495 1496 1497 1498 1500 1502 1503 1504 1506 1508 1510 1511 1513 1515 1518 1520 1522 1524 1526 1528 1529 1531 1532 1533 1534 1536 1537 1538 1539
1518 1519 1511 1493 1492 1496 1494 1489 1488 1488 1489 1490 1491 1491 1492 1493 1493 1495 1496 1498 1500 1501 1503 1504 1506 1508 1509 1511 1513 1516 1518 1520 1522 1523 1525 1526 1528 1529 1530 1531 1532 1534 1535 1536
1502 1501 1493 1490 1490 1489 1488 1488 1487 1487 1487 1488 1488 1489 1490 1491 1492 1494 1495 1497 1498 1500 1501 1503 1504 1506 1507 1509 1511 1513 1515 1517 1519 1521 1522 1523 1525 1526 1527 1528 1529 1530 1531 1532
1498 1492 1489 1488 1487 1486 1486 1486 1486 1486 1486 1487 1487 1487 1488 1489 1491 1492 1494 1495 1496 1498 1499 1500 1502 1503 1505 1507 1508 1510 1512 1514 1515 1517 1518 1520 1521 1523 1524 1525 1526 1527 1528 1528
1494 1490 1487 1485 1485 1485 1484 1484 1484 1484 1485 1485 1485 1486 1487 1488 1489 1490 1492 1493 1494 1496 1497 1498 1499 1501 1503 1504 1506 1507 1508 1510 1512 1513 1514 1516 1517 1519 1520 1522 1523 1524 1524 1525
1489 1485 1485 1483 1483 1483 1483 1482 1482 1482 1483 1484 1484 1484 1485 1486 1487 1489 1490 1491 1492 1493 1494 1496 1497 1498 1500 1501 1502 1504 1505 1506 1508 1509 1511 1512 1513 1515 1517 1518 1519 1520 1521 1522
1480 1480 1481 1481 1480 1480 1481 1481 1481 1481 1481 1482 1482 1483 1484 1485 1486 1487 1488 1489 1489 1491 1492 1493 1494 1495 1497 1498 1499 1500 1501 1503 1504 1505 1507 1508 1509 1511 1512 1514 1515 1516 1516 1517
1477 1478 1477 1477 1477 1477 1478 1478 1478 1478 1479 1480 1480 1481 1482 1483 1483 1484 1485 1486 1487 1488 1490 1491 1492 1493 1494 1495 1496 1497 1498 1499 1500 1502 1503 1504 1506 1507 1508 1509 1510 1510 1512 1512
1472 1473 1473 1473 1473 1474 1474 1474 1475 1475 1476 1477 1478 1479 1479 1480 1481 1482 1483 1484 1485 1486 1487 1488 1489 1490 1491 1492 1492 1493 1494 1495 1497 1498 1499 1500 1502 1503 1504 1505 1506 1506 1507 1508
1467 1468 1469 1469 1469 1469 1470 1470 1471 1472 1473 1474 1475 1476 1477 1477 1478 1479 1480 1481 1482 1482 1483 1484 1485 1487 1488 1488 1489 1490 1491 1492 1493 1494 1495 1497 1498 1499 1500 1501 1501 1502 1503 1503
1462 1463 1463 1464 1464 1464 1465 1466 1467 1468 1470 1471 1472 1473 1474 1475 1475 1476 1477 1478 1479 1480 1481 1482 1482 1484 1485 1485 1486 1486 1487 1488 1489 1491 1492 1492 1494 1495 1496 1497 1497 1498 1499 1499
1457 1458 1459 1459 1460 1460 1461 1462 1464 1465 1465 1467 1469 1470 1471 1472 1472 1473 1474 1475 1476 1477 1477 1478 1479 1480 1481 1482 1482 1483 1484 1484 1485 1486 1488 1489 1490 1491 1492 1492 1493 1494 1494 1495
1453 1454 1455 1455 1456 1456 1457 1458 1460 1461 1462 1464 1465 1466 1467 1468 1469 1470 1471 1472 1472 1472 1473 1475 1476 1477 1477 1478 1479 1480 1480 1481 1482 1483 1484 1485 1486 1487 1488 1488 1489 1489 1490 1490
1449 1450 1450 1451 1452 1453 1454 1455 1456 1457 1458 1460 1461 1462 1463 1464 1466 1467 1468 1468 1469 1470 1470 1471 1472 1473 1474 1475 1476 1476 1477 1477 1478 1479 1480 1481 1482 1483 1483 1484 1484 1485 1485 1485
1445 1446 1446 1447 1448 1449 1451 1452 1452 1453 1455 1456 1457 1458 1460 1461 1463 1464 1464 1464 1466 1467 1468 1468 1469 1470 1471 1471 1472 1472 1473 1474 1475 1475 1476 1477 1478 1478 1479 1480 1480 1480 1480 1480
1442 1442 1443 1444 1444 1445 1447 1449 1449 1450 1452 1453 1454 1456 1457 1458 1459 1460 1461 1461 1462 1463 1464 1465 1465 1466 1467 1467 1468 1468 1469 1470 1470 1471 1472 1473 1473 1474 1474 1475 1475 1476 1476 1476
1439 1440 1440 1441 1441 1442 1444 1446 1447 1448 1449 1450 1451 1452 1453 1454 1455 1456 1456 1457 1458 1459 1460 1461 1461 1462 1463 1463 1463 1464 1465 1465 1466 1467 1467 1468 1469 1469 1470 1470 1471 1471 1471 1471
1437 1437 1438 1438 1439 1440 1441 1442 1443 1444 1445 1446 1447 1448 1449 1450 1451 1452 1453 1454 1454 1455 1456 1456 1457 1458 1458 1459 1459 1460 1460 1461 1461 1462 1463 1463 1464 1465 1465 1466 1466 1466 1466 1466
1435 1435 1435 1436 1436 1436 1437 1439 1440 1441 1442 1443 1443 1445 1446 1446 1447 1448 1449 1449 1450 1451 1451 1452 1453 1453 1454 1454 1454 1455 1455 1456 1457 1458 1458 1458 1459 1460 1460 1461 1461 1461 1461 1461
1433 1433 1433 1434 1434 1434 1435 1435 1436 1437 1438 1438 1439 1441 1442 1443 1444 1444 1445 1445 1446 1447 1447 1447 1448 1449 1449 1450 1450 1450 1451 1452 1453 1453 1454 1454 1454 1455 1455 1456 1456 1456 1456 1457
1431 1431 1431 1431 1431 1432 1432 1432 1433 1433 1434 1435 1435 1437 1438 1439 1440 1440 1441 1441 1442 1442 1442 1443 1444 1444 1445 1445 1445 1446 1447 1447 1448 1449 1449 1449 1450 1450 1451 1451 1452 1452 1452 1452